WESTFORD NEEDLES, 2381

Orbit data source: Space-Track

WESTFORD NEEDLES, 2381 is space debris in LEO originally from a launch on Thu, 09 May 1963 UTC launched from the Air Force Western Test Range (AFWTR). Debris objects in space refer to the collection of defunct objects orbiting the Earth. Examples of debris include non-operational satellites, rocket bodies, and fragments generated from explosions, collisions, or faulty payload assembly.

Loading next visibility...
Identifier
2381, 1963-014AB
Orbit
LEO
Country
Flag of USUS
Related business
Manufacturer
Unknown
Mission
Spacecraft
Bus & Motor
Unknown
Mass
Unknown
Launch date (UTC)
1963-05-09 (62 years ago)
Launch vehicle
Unknown
Launch site
Air Force Western Test Range (AFWTR)
Object type
Payload
Rocket body
Debris
Shape & HBR
Unknown
Radar Cross Section
Medium (>0.1 m² and <1 m²)

Expand to show TLE details & history
Last TLE update: 13 hours ago

TLE from 13 hours ago
0 WESTFORD NEEDLES
1 02381U 63014AB  25260.99305782  .00000146  00000-0  63499-1 0  9999
2 02381  87.2956 123.9829 0236449 166.1609 194.5872  8.67463584367669
Epoch: 2025-09-17T23:50Z
TLE epoch observation values (Epoch: 2025-09-17T23:50:00.195Z)
Latitude
0.00001°
Longitude
129.32105°
Altitude
3,858.772 km
Speed
6.169 km/s
True Right ascension
08h 15m 55s
True Declination
0° 00' 00"
Sunlit
Object was in daylight at epoch
Visualization orbit readout
Latitude
Unknown
Longitude
Unknown
Altitude
Unknown
Speed
Unknown
Apparent Right ascension
Unknown
Apparent Declination
Unknown
Sunlit
N/A
Visualization observer readout
Local Sidereal Time
05:39:12
Azimuth
Unknown
Elevation
Unknown
Doppler factor
Unknown
Orbital elements
Apogee altitude
3,861.604 km
Perigee altitude
3,388.554 km
Semi-major axis
10,003.216 km
Eccentricity
0.02364
Inclination
87.2956°
RAAN
123.9829°
Arg. of periapsis
166.1609°
True anomaly
193.92381°
Mean anomaly
194.5872°
Eccentric anomaly
194.25364°
Mean motion
2.16937 °/min
Orbital period
165.95 mins
BSTAR
0.063499
Loading maneuver chart data...
Computing Atmospheric mass density...

Documentation

Showing up to 5 results
|